Погода в Шахане

Казахстан     49°49′06″N   72°39′14″E
темп.,
°C
ветер,
м/с
пор.,
м/с
влажн.,
%
обл.,
%
осадки,
мм/ч
давл.,
гПа
погр.,
м
19 января, ср
ср1900:00−18св229852 0.0 103017
03:00−18св22999 0.0 103025
06:00−18св339933 0.0 102937
09:00−16св369718 0.0 102880
12:00−10всв499330 0.0 1027234
15:00−8всв49905 0.0 1027350
18:00−12всв49935 0.0 1028104
21:00−15всв36956 0.0 103171
20 января, чт
чт2000:00−17в47955 0.0 103274
03:00−17всв47935 0.0 103270
06:00−18в47935 0.0 103373
09:00−19в35915 0.0 103449
12:00−12вюв35760 0.0 1033110
15:00−9в367761 0.0 1031165
18:00−15в33837 0.0 103232
21:00−15вюв47795 0.0 103270
21 января, пт
пт2100:00−16вюв46815 0.0 103160
03:00−17в34855 0.0 103045
06:00−16в35855 0.0 102952
09:00−18в33895 0.0 102931
12:00−10вюв24835 0.0 1026116
15:00−7в23835 0.0 1024148
18:00−13всв47765 0.0 102682
21:00−15в410776 0.0 1027124
22 января, сб
сб2200:00−17в49785 0.0 1028100
03:00−18в45775 0.0 102855
06:00−20в3384100 0.0 102931
09:00−20в3384100 0.0 103035
12:00−11в3577100 0.0 1028117
15:00−7в347899 0.0 102795
18:00−13в3383100 0.0 102920
21:00−14вюв2282100 0.0 103030
23 января, вс
вс2300:00−13юв1185100 0.0 103011
03:00−14юв2286100 0.0 103110
06:00−14вюв1187100 0.0 103113
09:00−13вюв2288100 0.0 103214
12:00−8юв1175100 0.0 103193
15:00−6юв1177100 0.0 1030115
18:00−9всв1188100 0.0 103110
21:00−10всв2291100 0.0 103229